STARLINK-2556 (48302 NORAD) Tracking and Keplerian Element Data

This shows tracking and keplerian element data for the satellite.

Feedback or suggestion? Click here.




ElementValue
Catalog48302
NameSTARLINK-2556
Epoch Orbit187
Epoch Day170.58334491
Epoch Year2021
RAAN274.3046
Inclination53.051
Eccentricity0.000133
Argument of Perigee72.4028
Mean Anonmoly122.3239
Mean Motion15.47820237
Decay Rate-0.01078969
L11 48302U 21036AC 21170.58334491 -.01078969 00000-0 -22562-1 0 9997
L22 48302 53.0510 274.3046 0001330 72.4028 122.3239 15.47820237 1876

Live tracking and technical data element details for STARLINK-2556 (NORAD 48302). STARLINK-2556 can be tracked NOW for your location showing map with azimuth and elevation plus other details from your city location.

Track the satellite on the map from your city or location and see movement details for azimuth, elevation, latitude, longitude, range, height, and movement on the map or in text.







IsCatalogInMostPopularTable: catalog: 48302, numindb: 20
Update: records affected: 1



GetName: 48302 STARLINK-2556

Hit Count: updated at: Mon, 21 Jun 2021 04:53:46 GMT